Regional Weather Roundup
Issued by NWS Charleston, SC

Current Version | Previous Version | Graphics & Text | Print | Product List | Glossary On
Versions: 1 2 3 4 5 6 7 8 9 10 11 12 13 14 15 16 17 18 19 20 21 22 23 24 25 26 27 28 29 30 31 32 33 34 35 36 37 38 39 40 41 42 43 44 45 46 47 48 49 50
000
ASUS42 KCHS 232246
RWRCHS

REGIONAL WEATHER ROUNDUP
NATIONAL WEATHER SERVICE CHARLESTON SC
600 PM EDT SAT SEP 23 2017

NOTE: "FAIR" INDICATES FEW OR NO CLOUDS BELOW 12,000 FEET WITH NO
SIGNIFICANT WEATHER AND/OR OBSTRUCTIONS TO VISIBILITY.

NOT ALL STATIONS ARE QUALITY CONTROLLED. USE DATA WITH CAUTION...
ESPECIALLY DEWPOINT OBSERVATIONS.

SCZ027-030-031-034>040-042>050-232300-
...SOUTHEAST SOUTH CAROLINA...

CITY           SKY/WX    TMP DP  RH WIND       PRES   REMARKS
N CHARLESTON   MOSUNNY   84  67  56 E13       29.99R
WATERFRONT PRK   N/A     82  70  66 E9        29.83F
JOHNS ISLAND   FAIR      81  70  69 E10       29.99S
PINOPOLIS        N/A     84  70  61 CALM      29.91F
MONCKS CORNER  FAIR      82  63  51 E5        29.99R
SUMMERVILLE    MOCLDY    84  68  58 CALM      30.00R
BEAUFORT MCAS  SUNNY     83  71  67 E9        29.98R
BEAUFORT ARPT  FAIR      81  70  69 E10       29.98S
HILTON HEAD IS SUNNY     81  73  78 E8        29.99R
WALTERBORO     CLEAR     82  68  61 SE6       30.00R
ALLENDALE      NOT AVBL

...SOUTHERN MIDLANDS AND PEE DEE...

CITY           SKY/WX    TMP DP  RH WIND       PRES   REMARKS
GEORGETOWN     FAIR      81  68  65 SE6       30.01S
KINGSTREE      FAIR      81  70  69 CALM      29.99R
ORANGEBURG     SUNNY     85  64  49 E7        29.99S
BARNWELL       FAIR      88  66  48 E6        29.99R HX  90
AIKEN          FAIR      82  64  54 NE3       30.03S
MANNING        FAIR      82  66  57 MISG      29.99S
COLUMBIA       MOSUNNY   88  61  40 E7        29.98S
SUMTER         SUNNY     87  60  38 E8        29.98R
FLORENCE       MOSUNNY   86  60  41 E9        30.00S
MYRTLE BEACH   CLOUDY    81  72  74 SE6       30.02R
N MYRTLE BEACH MOSUNNY   81  70  69 SE6       30.00R

$$

GAZ063-065-086>088-099>101-113>116-118-119-134>141-150-232300-
...SOUTHEAST GEORGIA...

CITY           SKY/WX    TMP DP  RH WIND       PRES   REMARKS
SAVANNAH ARPT  MOSUNNY   85  67  54 E12       29.98R
HUNTER AAF     SUNNY     83  69  63 E12       29.96R
FORT STEWART   CLOUDY    80  71  72 CALM      29.95F
STATESBORO     MOSUNNY   84  63  49 E3        29.98R
SYLVANIA       PTCLDY    83  72  70 SE5       30.00R
CLAXTON        MOCLDY    83  72  69 CALM      29.98R

...CSRA...CENTRAL AND FAR SOUTHEAST GEORGIA...

CITY           SKY/WX    TMP DP  RH WIND       PRES   REMARKS
THOMSON        MOSUNNY   84  67  54 SE5       30.04S
AUGUSTA-BUSH   MOSUNNY   89  65  44 SE5       29.97S HX  91
AUGUSTA-DANIEL PTSUNNY   88  62  41 SE3       30.00R
SWAINSBORO     FAIR      82  68  61 CALM      29.99S
VIDALIA        MOSUNNY   86  66  51 E9        29.98S
EASTMAN        FAIR      88  51  28 E6        29.99S
HAZLEHURST     FAIR      80  70  72 CALM      29.97S
ALMA           CLOUDY    79  69  71 CALM      29.96S
WAYCROSS       MOSUNNY   80  69  68 E8        29.96S
JESUP          NOT AVBL
BAXLEY         FAIR      75  75 100 CALM      29.96F
BRUNSWICK      CLOUDY    79  70  73 NE15      29.98R
SAINT SIMONS   CLOUDY    82  73  74 NE13G22   29.96R

$$

SCZ027-028-034-036>038-045-046-048>050-GAZ119-141-232300-
...LAKE AND SUPPLEMENTAL COASTAL OBSERVATIONS...

STATION/POSITION TIME  TEMP    WIND        PRES    WAVE   SWELL
                       AIR SEA DIR/SP/G            HT/PER HT/PER/DIR
                 (UTC) (F)     (DEG/KT/KT) (MB)    (FT/S) (FT/S/D)
WINYAH BAY       2145   81     110/  5     1016.0S
LAKE MURRAY      2220   86      70/  1/  4 1014.9
ACE BASIN NERRS  2145   85      90/  2     1015.0S
FORT PULASKI     2200   80 81   80/ 14/ 17 1015.8
SAPELO ISLAND    2200   81        CALM     1015.0

$$

ANZ835-935-AMZ111-154-330-350-352-354-370-450-454-472-232300-
...C-MAN AND BUOY OBSERVATIONS...

STATION/POSITION TIME  TEMP    WIND        PRES    WAVE   SWELL
                       AIR SEA DIR/SP/G            HT/PER HT/PER/DIR
                 (UTC) (F)     (DEG/KT/KT) (MB)    (FT/S) (FT/S/D)
BUOY 41004       2210   80 82   50/ 16/ 17 1014.7
BUOY 41008       2150   80 81   60/ 17/ 19 1014.2R   6/15   3/ 20/15
FOLLY BEACH CMAN 2200   80      80/ 12/ 14 1016.2R
CAPERS NEARSHORE NOT AVBL
FRIPP NEARSHORE  2208   81      70/ 14/ 16 1020.6F


STATION/POSITION TIME  TEMP    WIND        PRES    WAVE   SWELL
                       AIR SEA DIR/SP/G            HT/PER HT/PER/DIR
                 (UTC) (F)     (DEG/KT/KT) (MB)    (FT/S) (FT/S/D)
5E ST. MARYS GA  2200      82                N/A     5/12   2/110/12
FRYING PAN BUOY  2210   80 82   60/ 12/ 14 1015.5
BUOY 41025       2150   75 76   20/ 12/ 14 1016.2S   6/12   7/150/12
CAPE LOOKOUT NC  2200   77      80/ 10/ 10 1016.2R
BUOY 41002       2150   79 80   50/ 21/ 25 1013.1F  10/15   8/130/15
BUOY 41010       2210           60/ 16/ 21 1012.7
ST AUGUSTINE FL  2200   81 83   40/ 19/ 20 1013.0F


$$




USA.gov is the U.S. government's official web portal to all federal, state and local government web resources and services.